Regional Weather Roundup
Issued by NWS

Home | Current Version | Previous Version | Graphics & Text | Print | Product List | Glossary On
Versions: 1 2 3 4 5 6 7 8 9 10 11 12 13 14 15 16 17 18 19 20 21 22 23 24 25 26 27 28 29 30 31 32 33 34 35 36 37 38 39 40 41 42 43 44 45 46 47 48 49 50
000
ASUS43 KLSX 222107
RWRMO

WEATHER SUMMARY FOR MISSOURI
NATIONAL WEATHER SERVICE SPRINGFIELD MO
400 PM CDT MON MAY 22 2017

NOTE: "FAIR" INDICATES FEW OR NO CLOUDS BELOW 12,000 FEET WITH NO
       SIGNIFICANT WEATHER AND/OR OBSTRUCTIONS TO VISIBILITY.
       CURRENT SKY AND/OR WEATHER CONDITIONS ARE NOT AVAILABLE FOR
       CHILLICOTHE AND FARMINGTON.

MOZ001>031-035>038-043-044-053-054-222200-
...NORTHERN AND WESTERN MISSOURI...

CITY           SKY/WX    TMP DP  RH WIND       PRES   REMARKS
KANSAS CTY INT TSTM      60  54  80 N16G22    29.98F
KANSAS C DTWN  TSTM      68  56  65 N9G21     29.95F
LEE`S SUMMIT   CLOUDY    72  55  55 SW15G22   29.96F
ST JOSEPH      LGT RAIN  60  58  92 W10       29.99S
CHILLICOTHE      N/A     62  59  90 S3        29.99F
KIRKSVILLE     CLOUDY    63  57  81 SW9G16    29.99F

$$
MOZ066>068-077>081-088>096-101>105-222200-
...SOUTHWEST MISSOURI...

CITY           SKY/WX    TMP DP  RH WIND       PRES   REMARKS
SPRINGFIELD    MOSUNNY   74  51  44 S8G17     29.99F
JOPLIN         MOSUNNY   77  51  40 S9        29.98F
BRANSON        PTSUNNY   73  43  33 SE7       30.02F

$$
MOZ032>034-039>042-045>050-055>058-069>072-222200-
...CENTRAL MISSOURI...

CITY           SKY/WX    TMP DP  RH WIND       PRES   REMARKS
COLUMBIA       CLOUDY    72  54  53 W10       30.00F
ROLLA          MOSUNNY   72  53  51 S5        30.00F
SEDALIA        CLOUDY    72  57  59 SW9       30.00F
WHITEMAN AFB   CLOUDY    71  56  58 SW16      29.97F
WARRENSBURG    PTSUNNY   70  54  56 S8        29.98F

$$
MOZ051-052-059>065-222200-
...EAST CENTRAL MISSOURI...

CITY           SKY/WX    TMP DP  RH WIND       PRES   REMARKS
ST LOUIS INTL  PTSUNNY   78  47  33 S13       30.01F
SPIRIT OF STL  PTSUNNY   76  49  38 SW8       29.99F
ST CHARLES     CLOUDY    76  47  35 S10       29.99F

$$
MOZ072>076-082>087-097>100-106>115-222200-
...SOUTH CENTRAL AND SOUTHEAST MISSOURI...

CITY           SKY/WX    TMP DP  RH WIND       PRES   REMARKS
CAPE GIRARDEAU SUNNY     73  45  36 SE8       30.01F
FARMINGTON     SUNNY     73  49  42 S7        30.02F
POPLAR BLUFF   SUNNY     77  47  34 CALM      30.00F
WEST PLAINS    SUNNY     71  47  42 E3        30.03F

$$




USA.gov is the U.S. government's official web portal to all federal, state and local government web resources and services.